Preview of NWS' New Version of Forecast
This preview is not operational and should not be used for support decisions.

Regional Weather Roundup (RWR)

Issued by National Weather Service (NWS)

                            
000
ASUS45 KCYS 171910
RWRWY 

WYOMING REGIONAL WEATHER ROUNDUP
NATIONAL WEATHER SERVICE CHEYENNE WY
100 PM MDT MON JUN 17 2019

NOTE:  "FAIR" INDICATES FEW OR NO CLOUDS BELOW 12,000 FEET
WITH NO SIGNIFICANT WEATHER AND/OR OBSTRUCTIONS TO VISIBILITY.

WYZ001-172000-
YELLOWSTONE NATIONAL PARK
  
CITY           SKY/WX    TMP DP  RH WIND       PRES   REMARKS
LK YELLOWSTONE NOT AVBL                                               
W YELLOWSTONE  NOT AVBL                                               

$$
WYZ002>013-054>058-071-098>099-172000-
NORTHERN WYOMING
  
CITY           SKY/WX    TMP DP  RH WIND       PRES   REMARKS
JACKSON        PTSUNNY   61  45  55 SW8       30.13F                  
CODY           FAIR      67  49  52 VRB5      30.11F                  
GREYBULL       FAIR      72  51  47 VRB6      30.05F                  
WORLAND        FAIR      73  51  46 NE6       30.06F                  
SHERIDAN       CLOUDY    64  54  69 S13       30.10R THUNDER          
BUFFALO        TSTM      57  52  83 VRB7      30.15R VSB 3/4          
GILLETTE       FAIR      69  47  45 CALM      30.09F                  
NEWCASTLE      FAIR      70  43  37 W6        30.08                   

$$
WYZ014>020-022>026-101>103-172000-
CENTRAL WYOMING
  
CITY           SKY/WX    TMP DP  RH WIND       PRES   REMARKS
BIG PINEY      FAIR      67  43  41 VRB6      30.16F                  
PINEDALE       MOCLDY    64  41  42 W6        30.18F                  
DUBOIS         DRIZZLE   55  45  67 S3        30.19                   
LANDER         FAIR      60  52  74 S3        30.11F                  
RIVERTON       FAIR      67  50  54 S7        30.12S                  
CASPER         FAIR      70  50  49 CALM      30.10F                  
DOUGLAS        CLOUDY    67  53  61 NE8       30.11F                  

$$
WYZ021-027>030-104>119-172000-
SOUTHERN WYOMING
  
CITY           SKY/WX    TMP DP  RH WIND       PRES   REMARKS
EVANSTON       LGT RAIN  55  41  59 W13       30.17R                  
KEMMERER       FAIR      66  41  39 SW3       30.17                   
FORT BRIDGER   FAIR      70  43  37 NE6       30.18F                  
ROCK SPRINGS   FAIR      69  40  34 W7        30.12F                  
DIXON          FAIR      59  52  77 E14       30.19F                  
RAWLINS        PTSUNNY   68  44  42 NW9       30.15F                  
SARATOGA       CLOUDY    57  46  67 SE13      30.20R THUNDER          
LARAMIE        CLOUDY    62  44  51 CALM      30.17S                  
CHEYENNE       CLOUDY    66  50  56 NE8       30.13F                  
TORRINGTON     FAIR      71  59  65 S7        30.05F                  
PINE BLUFFS    FAIR      70  50  49 CALM      30.10F                  

$$